Location: Bagnara
(41.0500°N, 14.7833°E)
Time: 11:25:51
(UTC+00:00)

FENGYUN 1C DEB - Visible Passes

Search period start: 17 August 2022 00:00
Search period end: 27 August 2022 00:00
Orbit: 815 x 951 km, 98.7° (Epoch: 13 August)

Date Brightness Start Highest point End Pass type
(mag) Time Alt. Az. Time Alt. Az. Time Alt. Az.
17 Aug ? 00:43:35 29° NW 00:43:35 29° NW 00:46:24 10° NNW visible
17 Aug ? 22:58:37 21° NE 22:58:37 21° NE 23:01:52 10° NNE visible
18 Aug ? 00:41:18 29° NW 00:41:18 29° NW 00:44:04 10° NNW visible
18 Aug ? 22:56:21 20° NE 22:56:21 20° NE 22:59:26 10° NNE visible
19 Aug ? 00:39:02 29° NW 00:39:02 29° NW 00:41:45 10° NNW visible
19 Aug ? 22:54:05 19° NE 22:54:05 19° NE 22:57:01 10° NNE visible
20 Aug ? 00:36:46 29° NW 00:36:46 29° NW 00:39:26 10° NNW visible
20 Aug ? 22:51:49 19° NE 22:51:49 19° NE 22:54:36 10° NNE visible
21 Aug ? 00:34:30 28° NW 00:34:30 28° NW 00:37:06 10° NNW visible
21 Aug ? 22:49:32 18° NE 22:49:32 18° NE 22:52:10 10° NNE visible
22 Aug ? 00:32:14 28° NNW 00:32:14 28° NNW 00:34:46 10° NNW visible
22 Aug ? 22:47:16 17° NE 22:47:16 17° NE 22:49:44 10° NNE visible
23 Aug ? 00:29:58 28° NNW 00:29:58 28° NNW 00:32:26 10° NNW visible
23 Aug ? 22:45:00 16° NE 22:45:00 16° NE 22:47:18 10° NNE visible
24 Aug ? 00:27:42 27° NNW 00:27:42 27° NNW 00:30:07 10° NNW visible
24 Aug ? 22:42:44 15° NE 22:42:44 15° NE 22:44:51 10° NNE visible
25 Aug ? 00:25:26 27° NNW 00:25:26 27° NNW 00:27:46 10° NNW visible
25 Aug ? 22:40:28 15° NE 22:40:28 15° NE 22:42:24 10° NNE visible
26 Aug ? 00:23:10 26° NNW 00:23:10 26° NNW 00:25:27 10° NNW visible
26 Aug ? 22:38:12 14° NE 22:38:12 14° NE 22:39:57 10° NNE visible
